When you browse on this site, cookies collect data to enhance your experience and personalize the content and advertising you see.
Visit our Privacy Policy to learn more. By continuing to use the site, you agree to this use of cookies and data.
  • In Hungary
  • List of Countries
  • For 7 days
  • Water Temperature
  • Satellite Maps
  • Weather Map
  • News
  • Weather Widgets
  • user-avatar
    Login

    Hourly Weather Wantopol

    Today, 19 May, Sunday

    Time Temperature Precipitation Wind Pressure Humidity
    00:00 +17°C° 0.2 mm 3 mps 743 mmHg 94%
    01:00 +17°C° 0.2 mm 3 mps 743 mmHg 95%
    02:00 +17°C° 0 mm 3 mps 743 mmHg 94%
    03:00 +16°C° 0.5 mm 3 mps 743 mmHg 95%
    04:00 +16°C° 0.5 mm 3 mps 743 mmHg 96%
    05:00 +16°C° 0.5 mm 3 mps 743 mmHg 97%
    06:00 +17°C° 0.3 mm 3 mps 743 mmHg 95%
    07:00 +18°C° 0.3 mm 4 mps 743 mmHg 93%
    08:00 +19°C° 0.3 mm 4 mps 743 mmHg 91%
    09:00 +19°C° 0 mm 5 mps 743 mmHg 90%
    10:00 +19°C° 0 mm 5 mps 743 mmHg 88%
    11:00 +20°C° 0 mm 5 mps 743 mmHg 86%
    12:00 +21°C° 0.4 mm 5 mps 743 mmHg 84%
    13:00 +21°C° 0.4 mm 6 mps 743 mmHg 81%
    14:00 +22°C° 0.4 mm 6 mps 742 mmHg 79%
    15:00 +22°C° 0.6 mm 6 mps 742 mmHg 80%
    16:00 +22°C° 0.6 mm 6 mps 742 mmHg 81%
    17:00 +22°C° 0.6 mm 5 mps 742 mmHg 82%
    18:00 +21°C° 0.3 mm 5 mps 742 mmHg 85%
    19:00 +20°C° 0.3 mm 5 mps 742 mmHg 88%
    20:00 +19°C° 0.3 mm 4 mps 742 mmHg 90%
    21:00 +19°C° 0 mm 4 mps 742 mmHg 92%
    22:00 +18°C° 0 mm 4 mps 742 mmHg 93%
    23:00 +18°C° 0 mm 4 mps 742 mmHg 94%

    Tomorrow, 20 May, Monday

    Time Temperature Precipitation Wind Pressure Humidity
    00:00 +17°C° 0.2 mm 4 mps 742 mmHg 95%
    01:00 +17°C° 0.2 mm 4 mps 742 mmHg 96%
    02:00 +17°C° 0.2 mm 4 mps 742 mmHg 97%
    03:00 +17°C° 0 mm 4 mps 742 mmHg 97%
    04:00 +15°C° 0 mm 4 mps 742 mmHg 97%
    05:00 +15°C° 0 mm 4 mps 741 mmHg 98%
    06:00 +16°C° 0 mm 5 mps 741 mmHg 96%
    07:00 +17°C° 0 mm 5 mps 742 mmHg 94%
    08:00 +19°C° 0 mm 6 mps 742 mmHg 92%
    09:00 +20°C° 0 mm 6 mps 742 mmHg 88%
    10:00 +21°C° 0 mm 6 mps 742 mmHg 84%
    11:00 +22°C° 0 mm 6 mps 742 mmHg 81%
    12:00 +23°C° 0.3 mm 6 mps 742 mmHg 78%
    13:00 +23°C° 0.3 mm 6 mps 742 mmHg 76%
    14:00 +24°C° 0.3 mm 6 mps 741 mmHg 74%
    15:00 +24°C° 0.7 mm 6 mps 741 mmHg 76%
    16:00 +25°C° 0.7 mm 5 mps 741 mmHg 78%
    17:00 +23°C° 0.7 mm 5 mps 741 mmHg 80%
    18:00 +22°C° 0.3 mm 4 mps 741 mmHg 83%
    19:00 +21°C° 0.3 mm 4 mps 741 mmHg 85%
    20:00 +20°C° 0.3 mm 4 mps 741 mmHg 88%
    21:00 +19°C° 0.2 mm 4 mps 741 mmHg 90%
    22:00 +19°C° 0.2 mm 3 mps 741 mmHg 92%
    23:00 +18°C° 0.2 mm 3 mps 741 mmHg 94%

    Day after tomorrow, 21 May, Tuesday

    Time Temperature Precipitation Wind Pressure Humidity
    00:00 +18°C° 1.1 mm 3 mps 741 mmHg 95%
    01:00 +17°C° 1.1 mm 3 mps 741 mmHg 96%
    02:00 +17°C° 1.1 mm 3 mps 741 mmHg 97%
    03:00 +16°C° 0.2 mm 3 mps 740 mmHg 97%
    04:00 +16°C° 0.2 mm 3 mps 740 mmHg 97%
    05:00 +16°C° 0.2 mm 2 mps 740 mmHg 97%
    06:00 +17°C° 0.2 mm 3 mps 740 mmHg 95%
    07:00 +18°C° 0.2 mm 3 mps 740 mmHg 92%
    08:00 +19°C° 0.2 mm 3 mps 741 mmHg 89%
    09:00 +19°C° 0.4 mm 4 mps 741 mmHg 89%
    10:00 +19°C° 0.4 mm 4 mps 740 mmHg 88%
    11:00 +19°C° 0.4 mm 5 mps 740 mmHg 87%
    12:00 +19°C° 0.3 mm 5 mps 740 mmHg 87%
    13:00 +19°C° 0.3 mm 6 mps 741 mmHg 86%
    14:00 +17°C° 0.3 mm 6 mps 741 mmHg 86%
    15:00 +19°C° 0 mm 5 mps 740 mmHg 83%
    16:00 +19°C° 0 mm 5 mps 740 mmHg 80%
    17:00 +19°C° 0 mm 4 mps 740 mmHg 77%
    18:00 +18°C° 0 mm 4 mps 740 mmHg 81%
    19:00 +17°C° 0 mm 3 mps 740 mmHg 84%
    20:00 +16°C° 0 mm 2 mps 741 mmHg 87%
    21:00 +15°C° 0 mm 2 mps 741 mmHg 89%
    22:00 +14°C° 0 mm 2 mps 741 mmHg 90%
    23:00 +14°C° 0 mm 2 mps 741 mmHg 92%

    22 May, Wednesday

    Time Temperature Precipitation Wind Pressure Humidity
    00:00 +13°C° 0 mm 2 mps 741 mmHg 92%
    01:00 +13°C° 0 mm 2 mps 741 mmHg 93%
    02:00 +12°C° 0 mm 3 mps 741 mmHg 94%
    03:00 +11°C° 0 mm 3 mps 742 mmHg 94%
    04:00 +11°C° 0 mm 3 mps 742 mmHg 95%
    05:00 +11°C° 0 mm 3 mps 742 mmHg 95%
    06:00 +12°C° 0 mm 3 mps 742 mmHg 92%
    07:00 +14°C° 0 mm 3 mps 742 mmHg 88%
    08:00 +16°C° 0 mm 3 mps 742 mmHg 84%
    09:00 +18°C° 0 mm 3 mps 742 mmHg 78%
    10:00 +19°C° 0 mm 3 mps 742 mmHg 72%
    11:00 +21°C° 0 mm 3 mps 742 mmHg 66%
    12:00 +21°C° 0.1 mm 3 mps 742 mmHg 64%
    13:00 +23°C° 0.1 mm 2 mps 742 mmHg 62%
    14:00 +23°C° 0.1 mm 2 mps 742 mmHg 59%
    15:00 +23°C° 0.3 mm 2 mps 742 mmHg 62%
    16:00 +22°C° 0.3 mm 3 mps 742 mmHg 65%
    17:00 +21°C° 0.3 mm 3 mps 741 mmHg 68%
    18:00 +20°C° 0.4 mm 2 mps 741 mmHg 74%
    19:00 +19°C° 0.4 mm 2 mps 741 mmHg 81%
    20:00 +17°C° 0.4 mm 2 mps 741 mmHg 87%
    21:00 +17°C° 0 mm 2 mps 742 mmHg 89%
    22:00 +16°C° 0 mm 2 mps 742 mmHg 92%
    23:00 +14°C° 0 mm 3 mps 742 mmHg 94%

    23 May, Thursday

    Time Temperature Precipitation Wind Pressure Humidity
    00:00 +14°C° 0 mm 3 mps 742 mmHg 95%
    01:00 +13°C° 0 mm 3 mps 742 mmHg 96%
    02:00 +13°C° 0 mm 3 mps 742 mmHg 97%
    03:00 +13°C° 0 mm 3 mps 742 mmHg 96%
    04:00 +13°C° 0 mm 4 mps 742 mmHg 95%
    05:00 +13°C° 0 mm 4 mps 742 mmHg 94%
    06:00 +13°C° 0 mm 4 mps 742 mmHg 93%
    07:00 +13°C° 0 mm 5 mps 743 mmHg 92%
    08:00 +13°C° 0 mm 5 mps 743 mmHg 91%
    09:00 +14°C° 0.1 mm 5 mps 743 mmHg 89%
    10:00 +14°C° 0.1 mm 5 mps 743 mmHg 88%
    11:00 +14°C° 0.1 mm 6 mps 743 mmHg 87%
    12:00 +14°C° 0.1 mm 6 mps 744 mmHg 87%
    13:00 +14°C° 0.1 mm 7 mps 744 mmHg 87%
    14:00 +12°C° 0.1 mm 7 mps 744 mmHg 88%
    15:00 +12°C° 0.1 mm 7 mps 744 mmHg 88%
    16:00 +13°C° 0.1 mm 6 mps 744 mmHg 89%
    17:00 +11°C° 0.1 mm 6 mps 744 mmHg 89%
    18:00 +12°C° 0 mm 5 mps 744 mmHg 88%
    19:00 +12°C° 0 mm 5 mps 744 mmHg 87%
    20:00 +12°C° 0 mm 4 mps 744 mmHg 86%
    21:00 +11°C° 0 mm 4 mps 745 mmHg 89%
    22:00 +10°C° 0 mm 3 mps 745 mmHg 91%
    23:00 +9°C° 0 mm 3 mps 745 mmHg 94%

    24 May, Friday

    Time Temperature Precipitation Wind Pressure Humidity
    00:00 +9°C° 0 mm 3 mps 745 mmHg 94%
    01:00 +8°C° 0 mm 3 mps 745 mmHg 95%
    02:00 +8°C° 0 mm 2 mps 745 mmHg 95%
    03:00 +7°C° 0 mm 2 mps 745 mmHg 94%
    04:00 +7°C° 0 mm 2 mps 745 mmHg 94%
    05:00 +6°C° 0 mm 2 mps 745 mmHg 93%
    06:00 +8°C° 0 mm 3 mps 745 mmHg 87%
    07:00 +10°C° 0 mm 3 mps 745 mmHg 80%
    08:00 +11°C° 0 mm 4 mps 745 mmHg 74%
    09:00 +13°C° 0 mm 4 mps 745 mmHg 70%
    10:00 +14°C° 0 mm 4 mps 745 mmHg 66%
    11:00 +17°C° 0 mm 4 mps 745 mmHg 62%
    12:00 +17°C° 0 mm 4 mps 744 mmHg 60%
    13:00 +18°C° 0 mm 4 mps 744 mmHg 58%
    14:00 +19°C° 0 mm 4 mps 744 mmHg 56%
    15:00 +19°C° 0 mm 4 mps 744 mmHg 57%
    16:00 +19°C° 0 mm 4 mps 743 mmHg 58%
    17:00 +19°C° 0 mm 4 mps 743 mmHg 59%
    18:00 +17°C° 0 mm 3 mps 743 mmHg 65%
    19:00 +16°C° 0 mm 3 mps 743 mmHg 72%
    20:00 +14°C° 0 mm 2 mps 743 mmHg 78%
    21:00 +13°C° 0 mm 2 mps 743 mmHg 81%
    22:00 +12°C° 0 mm 2 mps 743 mmHg 83%
    23:00 +10°C° 0 mm 2 mps 743 mmHg 86%
    Show more